STARLINK-34619, 64737

Orbit data source: Space-Track

STARLINK-34619, 64737 is a payload satellite owned by SpaceX/Seattle (US) in LEO that was launched on Wed, 02 Jul 2025 UTC via an FALCON 9 launch vehicle from the Air Force Eastern Test Range (AFETR). Payload-class satellites include a variety of spacecraft equipped with specific instruments for various scientific and technological missions. These include communications satellites like Starlink; space stations such as the ISS; scientific satellites like the Hubble; Earth observation satellites from companies like Planet Labs, Umbra, and HawkEye 360; GPS; miniature CubeSats for education and research; and military/defense satellites.

Loading next visibility...
Identifier
64737, 2025-144P
Orbit
LEO
Country
Flag of USUS
Related business
Manufacturer
SpaceX/Seattle
Mission
Operational Commercial Communications
Bus & Motor
STARLINK V2MO, Unknown motor
Mass
575 kg wet, ~530 kg dry
Launch date (UTC)
2025-07-02 (1 year ago)
Launch vehicle
FALCON 9
Launch site
Air Force Eastern Test Range (AFETR)
Object type
Payload
Rocket body
Debris
Shape & HBR
Box + 2 Pan, 17.7 m
Radar Cross Section
36.964 m², Large (>1 m²)

Expand to show TLE details & history
Last TLE update: 12 hours ago

TLE from 12 hours ago
0 STARLINK-34619
1 64737U 25144P   26171.40440933  .00006998  00000-0  24811-3 0  9998
2 64737  53.1585  64.2458 0001202 105.8058 254.3076 15.30210633 55435
Epoch: 2026-06-20T09:42Z
TLE epoch observation values (Epoch: 2026-06-20T09:42:20.966Z)
Latitude
0.00005°
Longitude
10.03896°
Altitude
476.306 km
Speed
7.629 km/s
True Right ascension
04h 16m 59s
True Declination
0° 00' 00"
Sunlit
Object was in daylight at epoch
Visualization orbit readout
Latitude
Unknown
Longitude
Unknown
Altitude
Unknown
Speed
Unknown
Apparent Right ascension
Unknown
Apparent Declination
Unknown
Sunlit
N/A
Visualization observer readout
Local Sidereal Time
08:42:07
Azimuth
Unknown
Elevation
Unknown
Doppler factor
Unknown
Orbital elements
Apogee altitude
476.264 km
Perigee altitude
474.616 km
Semi-major axis
6,853.577 km
Eccentricity
0.00012
Inclination
53.1585°
RAAN
64.2458°
Arg. of periapsis
105.8058°
True anomaly
254.29434°
Mean anomaly
254.3076°
Eccentric anomaly
254.30097°
Mean motion
3.82532 °/min
Orbital period
94.11 mins
BSTAR
0.00024811
Loading maneuver chart data...
Computing Atmospheric mass density...
Loading historical data...
Loading historical data...
Loading historical data...
Loading historical data...
Loading historical data...
Loading historical data...
Loading historical data...

Documentation

Showing up to 5 results
|